Location: Asar Burnu
(36.5203°N, 30.5523°E)
Time: 17:03:55
(UTC+00:00)

Cosmos 1271 Rocket - Pass Details

Date: 04 August 2024
Orbit: 464 x 503 km, 81.2° (Epoch: 18 September)

Event Time Altitude Azimuth Distance (km) Brightness Sun altitude
Rises 07:22:52 0° 314° (NW) 2,573 5.9 49.6°
Enters shadow 08:05:27 -70° 153° (SSE) 12,467 9.3 57.4°
Exits shadow 08:31:39 -52° 23° (NNE) 10,707 8.9 61.8°
Maximum altitude 17:59:12 19° 90° (E) 1,265 4.2 -11.4°
